CW5363 Weather Reports


time (UTC)temp
C
wind
direction
speed
KPH
gust
KPH
rain 1hr
cm
rain 24hr
cm
rain mn
cm
humidity
%
barometer
mb
20260503232329 15 148 0.0 0.0 0.00 0.00 0.00 52 1014.7
20260503231828 15 150 0.0 6.4 0.00 0.00 0.00 51 1014.7
20260503231341 15 173 0.0 6.4 0.00 0.00 0.00 51 1014.7
20260503230843 15 157 1.6 9.7 0.00 0.00 0.00 51 1014.7
20260503230341 15 162 3.2 9.7 0.00 0.00 0.00 51 1014.7
20260503225826 15 218 1.6 8.0 0.00 0.00 0.00 51 1014.7
20260503225329 16 88 4.8 11.3 0.00 0.00 0.00 50 1014.7
20260503224828 16 204 4.8 11.3 0.00 0.00 0.00 50 1014.7
20260503224341 16 215 1.6 9.7 0.00 0.00 0.00 51 1014.7
20260503223840 16 212 4.8 9.7 0.00 0.00 0.00 50 1014.7
20260503223343 16 168 0.0 9.7 0.00 0.00 0.00 50 1014.7
20260503222828 16 198 1.6 9.7 0.00 0.00 0.00 49 1014.7
20260503222330 16 169 1.6 6.4 0.00 0.00 0.00 50 1014.7
20260503221827 16 173 1.6 4.8 0.00 0.00 0.00 50 1014.7
20260503221330 16 163 1.6 6.4 0.00 0.00 0.00 49 1014.7
20260503220851 16 177 3.2 8.0 0.00 0.00 0.00 49 1014.7
20260503220332 16 136 3.2 8.0 0.00 0.00 0.00 50 1014.7
20260503215823 16 140 1.6 8.0 0.00 0.00 0.00 49 1014.7
20260503215328 16 150 1.6 11.3 0.00 0.00 0.00 49 1014.7
20260503214830 16 211 4.8 11.3 0.00 0.00 0.00 49 1014.7
20260503214342 16 119 3.2 8.0 0.00 0.00 0.00 47 1014.7
20260503213842 16 244 0.0 8.0 0.00 0.00 0.00 49 1014.7
20260503213340 16 136 3.2 8.0 0.00 0.00 0.00 50 1015.0
20260503212826 16 312 1.6 6.4 0.00 0.00 0.00 48 1015.0
20260503212331 16 101 1.6 6.4 0.00 0.00 0.00 49 1015.0
20260503211831 16 123 0.0 8.0 0.00 0.00 0.00 48 1015.2
20260503211342 16 132 4.8 8.0 0.00 0.00 0.00 48 1015.2
20260503210842 16 107 3.2 8.0 0.00 0.00 0.00 47 1015.2
20260503210345 16 133 3.2 8.0 0.00 0.00 0.00 47 1015.2
20260503205829 16 134 3.2 9.7 0.00 0.00 0.00 47 1015.2
20260503205331 16 213 1.6 11.3 0.00 0.00 0.00 48 1015.2
20260503204850 17 116 4.8 11.3 0.00 0.00 0.00 47 1015.2
20260503204342 17 136 1.6 8.0 0.00 0.00 0.00 48 1015.2
20260503203843 17 209 3.2 9.7 0.00 0.00 0.00 47 1015.2
20260503203343 17 140 6.4 9.7 0.00 0.00 0.00 46 1015.5
20260503202829 17 150 4.8 9.7 0.00 0.00 0.00 44 1015.5
20260503202330 17 153 4.8 9.7 0.00 0.00 0.00 43 1015.5
20260503201829 17 190 4.8 8.0 0.00 0.00 0.00 42 1015.8
20260503201334 17 53 3.2 11.3 0.00 0.00 0.00 44 1015.8
20260503200855 17 138 4.8 11.3 0.00 0.00 0.00 44 1015.8
20260503200335 17 114 3.2 11.3 0.00 0.00 0.00 44 1015.9
20260503195837 17 137 4.8 11.3 0.00 0.00 0.00 43 1015.9
20260503195339 17 148 3.2 11.3 0.00 0.00 0.00 44 1015.9
20260503194838 17 162 6.4 11.3 0.00 0.00 0.00 41 1016.0
20260503194404 17 162 4.8 11.3 0.00 0.00 0.00 43 1016.0
20260503193845 17 85 3.2 11.3 0.00 0.00 0.00 46 1016.0
20260503193344 17 147 4.8 9.7 0.00 0.00 0.00 45 1016.4
20260503192827 17 166 3.2 11.3 0.00 0.00 0.00 44 1016.4
20260503192328 17 202 4.8 9.7 0.00 0.00 0.00 42 1016.4
20260503191830 17 165 3.2 12.9 0.00 0.00 0.00 41 1016.4
20260503191342 17 223 0.0 12.9 0.00 0.00 0.00 41 1016.4
20260503190844 17 212 4.8 14.5 0.00 0.00 0.00 42 1016.4
20260503190344 17 139 8.0 14.5 0.00 0.00 0.00 40 1016.4
20260503185829 17 164 4.8 11.3 0.00 0.00 0.00 40 1016.4
20260503185330 17 100 3.2 9.7 0.00 0.00 0.00 40 1016.4
20260503184829 17 84 6.4 12.9 0.00 0.00 0.00 39 1016.4
20260503184335 17 185 3.2 12.9 0.00 0.00 0.00 38 1016.4
20260503183840 17 285 4.8 11.3 0.00 0.00 0.00 41 1016.4
20260503183338 17 131 4.8 9.7 0.00 0.00 0.00 41 1016.8
20260503182844 17 123 3.2 8.0 0.00 0.00 0.00 41 1016.8
20260503182345 17 168 3.2 8.0 0.00 0.00 0.00 39 1016.8
20260503181844 17 193 3.2 8.0 0.00 0.00 0.00 42 1016.9
20260503181336 17 215 4.8 8.0 0.00 0.00 0.00 41 1016.9
20260503180858 16 107 1.6 9.7 0.00 0.00 0.00 42 1016.9
20260503180339 16 236 6.4 9.7 0.00 0.00 0.00 40 1017.0
20260503175904 16 66 3.2 9.7 0.00 0.00 0.00 40 1017.0
20260503175345 16 148 4.8 9.7 0.00 0.00 0.00 42 1017.0
20260503174828 16 209 1.6 4.8 0.00 0.00 0.00 42 1017.1
20260503174331 16 80 1.6 6.4 0.00 0.00 0.00 43 1017.1
20260503173852 16 125 3.2 8.0 0.00 0.00 0.00 43 1017.1
20260503173330 16 196 3.2 8.0 0.00 0.00 0.00 41 1017.4
20260503172843 16 160 1.6 9.7 0.00 0.00 0.00 43 1017.4
20260503172345 15 121 3.2 9.7 0.00 0.00 0.00 46 1017.4
20260503171844 15 128 4.8 8.0 0.00 0.00 0.00 46 1017.5
20260503171327 15 203 4.8 8.0 0.00 0.00 0.00 47 1017.5
20260503170829 15 200 0.0 8.0 0.00 0.00 0.00 47 1017.5
20260503170329 14 226 1.6 9.7 0.00 0.00 0.00 48 1017.9
20260503150841 13 209 3.2 6.4 0.00 0.00 0.00 53 1018.7
20260503150342 13 71 0.0 0.0 0.00 0.00 0.00 57 1018.7
20260503131350 5 311 0.0 0.0 0.00 0.00 0.00 86 1018.6
20260503130832 5 311 0.0 0.0 0.00 0.00 0.00 87 1018.6
20260503130335 5 311 0.0 0.0 0.00 0.00 0.00 88 1018.6
20260503110826 1 311 0.0 0.0 0.00 0.00 0.00 94 1017.9
20260503110350 1 311 0.0 0.0 0.00 0.00 0.00 93 1017.5
20260503090330 2 316 0.0 0.0 0.00 0.00 0.00 91 1016.4
20260503081339 2 316 0.0 0.0 0.00 0.00 0.00 89 1015.9
20260503080840 2 316 0.0 0.0 0.00 0.00 0.00 89 1015.9
20260503080339 2 316 0.0 0.0 0.00 0.00 0.00 89 1015.7
20260503072824 2 316 0.0 0.0 0.00 0.00 0.00 89 1015.5
20260503072328 2 316 0.0 0.0 0.00 0.00 0.00 88 1015.5
20260503071828 2 316 0.0 0.0 0.00 0.00 0.00 88 1015.5
20260503071342 2 206 0.0 0.0 0.00 0.00 0.00 87 1015.5
20260503070842 3 206 0.0 0.0 0.00 0.00 0.00 87 1015.5
20260503070342 3 206 0.0 0.0 0.00 0.00 0.00 86 1015.2
20260503060339 4 288 0.0 0.0 0.00 0.00 0.00 83 1015.3
20260503054848 4 288 0.0 0.0 0.00 0.00 0.00 82 1015.3
20260503054334 4 288 0.0 0.0 0.00 0.00 0.00 82 1015.3
20260503053835 4 288 0.0 3.2 0.00 0.00 0.00 82 1015.3
20260503053338 4 288 1.6 3.2 0.00 0.00 0.00 82 1015.5
20260503052826 5 289 0.0 0.0 0.00 0.00 0.00 81 1015.5
20260503052334 5 288 0.0 0.0 0.00 0.00 0.00 80 1015.5
20260503051831 5 288 0.0 0.0 0.00 0.00 0.00 79 1015.3
20260503051336 5 288 0.0 0.0 0.00 0.00 0.00 78 1015.3
20260503050840 5 288 0.0 0.0 0.00 0.00 0.00 78 1015.3
20260503050340 5 288 0.0 0.0 0.00 0.00 0.00 78 1015.2
20260503045847 5 288 0.0 0.0 0.00 0.00 0.00 78 1015.2
20260503045347 5 288 0.0 0.0 0.00 0.00 0.00 77 1015.2
20260503044825 5 288 0.0 0.0 0.00 0.00 0.00 76 1015.2
20260503044340 5 205 0.0 0.0 0.00 0.00 0.00 76 1015.2
20260503043825 5 173 0.0 0.0 0.00 0.00 0.00 78 1015.2
20260503043327 5 173 0.0 0.0 0.00 0.00 0.00 77 1015.2
20260503042840 5 173 0.0 0.0 0.00 0.00 0.00 76 1015.2
20260503042346 5 173 0.0 0.0 0.00 0.00 0.00 76 1015.2
20260503041845 5 173 0.0 0.0 0.00 0.00 0.00 75 1015.1
20260503041328 5 173 0.0 0.0 0.00 0.00 0.00 75 1015.1
20260503040829 5 173 0.0 0.0 0.00 0.00 0.00 74 1015.1
20260503040347 6 173 0.0 0.0 0.00 0.00 0.00 75 1014.9
20260503035838 6 173 0.0 0.0 0.00 0.00 0.00 74 1014.9
20260503035339 6 173 0.0 0.0 0.00 0.00 0.00 74 1014.9
20260503034838 6 173 0.0 0.0 0.00 0.00 0.00 73 1014.8
20260503034327 6 172 0.0 0.0 0.00 0.00 0.00 73 1014.8
20260503033827 6 173 0.0 0.0 0.00 0.00 0.00 74 1014.8
20260503033327 6 173 0.0 0.0 0.00 0.00 0.00 74 1014.7
20260503032844 6 173 0.0 0.0 0.00 0.00 0.00 73 1014.7
20260503032345 6 173 0.0 0.0 0.00 0.00 0.00 73 1014.7
20260503031844 6 173 0.0 0.0 0.00 0.00 0.00 72 1014.6
20260503031330 6 173 0.0 0.0 0.00 0.00 0.00 72 1014.6
20260503030832 7 172 0.0 0.0 0.00 0.00 0.00 70 1014.6
20260503030331 7 173 0.0 0.0 0.00 0.00 0.00 68 1014.5
20260503025838 7 172 0.0 0.0 0.00 0.00 0.00 68 1014.5
20260503025339 7 172 0.0 0.0 0.00 0.00 0.00 69 1014.5
20260503024843 7 173 0.0 0.0 0.00 0.00 0.00 67 1014.3
20260503024335 7 173 0.0 0.0 0.00 0.00 0.00 68 1014.3
20260503023858 7 172 0.0 0.0 0.00 0.00 0.00 68 1014.3
20260503023339 7 172 0.0 0.0 0.00 0.00 0.00 67 1014.2
20260503022826 7 173 0.0 0.0 0.00 0.00 0.00 65 1014.2
20260503022332 7 173 0.0 0.0 0.00 0.00 0.00 65 1014.2
20260503021830 7 172 0.0 0.0 0.00 0.00 0.00 64 1014.1
20260503021342 8 173 0.0 0.0 0.00 0.00 0.00 65 1014.1
20260503020844 8 173 0.0 0.0 0.00 0.00 0.00 64 1014.1
20260503020343 8 173 0.0 0.0 0.00 0.00 0.00 63 1014.1
20260503015828 8 173 0.0 0.0 0.00 0.00 0.00 66 1014.1
20260503015329 8 172 0.0 0.0 0.00 0.00 0.00 65 1014.1
20260503014848 8 172 0.0 0.0 0.00 0.00 0.00 64 1014.0
20260503014340 8 172 0.0 0.0 0.00 0.00 0.00 63 1014.0
20260503013842 8 172 0.0 0.0 0.00 0.00 0.00 63 1014.0
20260503013324 9 167 0.0 0.0 0.00 0.00 0.00 63 1013.7
20260503012839 9 167 0.0 0.0 0.00 0.00 0.00 63 1013.7
20260503012341 9 167 0.0 3.2 0.00 0.00 0.00 61 1013.7
20260503011840 9 167 0.0 3.2 0.00 0.00 0.00 59 1013.5
20260503011327 10 167 0.0 3.2 0.00 0.00 0.00 59 1013.5
20260503010828 10 247 1.6 6.4 0.00 0.00 0.00 57 1013.5
20260503010328 10 360 1.6 6.4 0.00 0.00 0.00 55 1013.0
20260503005901 10 360 1.6 6.4 0.00 0.00 0.00 55 1013.0
20260503005340 10 360 0.0 9.7 0.00 0.00 0.00 54 1013.0
20260503004843 10 327 4.8 9.7 0.00 0.00 0.00 55 1013.0
20260503004327 10 251 1.6 6.4 0.00 0.00 0.00 58 1013.0
20260503003849 10 336 1.6 6.4 0.00 0.00 0.00 61 1013.0
20260503003330 10 236 0.0 0.0 0.00 0.00 0.00 62 1012.7
20260503002905 10 236 0.0 0.0 0.00 0.00 0.00 57 1012.7
20260503002344 10 236 0.0 0.0 0.00 0.00 0.00 52 1012.7
20260503001844 10 360 0.0 0.0 0.00 0.00 0.00 51 1012.5
20260503001330 11 13 0.0 0.0 0.00 0.00 0.00 52 1012.5
20260503000832 11 12 0.0 0.0 0.00 0.00 0.00 51 1012.5
20260503000332 11 15 0.0 0.0 0.00 0.00 0.00 54 1012.1
20260502235906 11 348 0.0 0.0 0.00 0.00 0.00 51 1012.1
20260502235327 11 349 0.0 1.6 0.00 0.00 0.00 49 1012.1
20260502234845 11 348 0.0 8.0 0.00 0.00 0.00 48 1011.9
20260502234327 11 348 4.8 8.0 0.00 0.00 0.00 47 1011.9
20260502233828 11 355 0.0 0.0 0.00 0.00 0.00 47 1011.9
20260502233327 12 360 0.0 9.7 0.00 0.00 0.00 46 1011.9
20260502232839 12 360 0.0 9.7 0.00 0.00 0.00 46 1011.9